TimeCST,TemperatureF,Dew PointF,Humidity,Sea Level PressureIn,VisibilityMPH,Wind Direction,Wind SpeedMPH,Gust SpeedMPH,PrecipitationIn,Events,Conditions,WindDirDegrees,DateUTC
12:53 AM,50.0,39.0,66,29.96,10.0,SSE,9.2,-,N/A,,Scattered Clouds,160,2013-11-15 06:53:00
1:53 AM,46.9,39.0,74,29.95,10.0,SSE,4.6,-,N/A,,Clear,160,2013-11-15 07:53:00
2:53 AM,46.0,39.9,79,29.94,10.0,SE,8.1,-,N/A,,Clear,130,2013-11-15 08:53:00
3:53 AM,45.0,42.1,90,29.93,10.0,SSE,10.4,-,N/A,,Clear,150,2013-11-15 09:53:00
4:53 AM,46.0,42.1,86,29.93,10.0,SSE,8.1,-,N/A,,Clear,150,2013-11-15 10:53:00
5:53 AM,44.1,41.0,89,29.94,10.0,SSE,9.2,-,N/A,,Clear,150,2013-11-15 11:53:00
6:53 AM,43.0,41.0,93,29.94,10.0,SE,8.1,-,N/A,,Clear,140,2013-11-15 12:53:00
7:53 AM,46.0,43.0,89,29.96,10.0,SSE,9.2,-,N/A,,Clear,160,2013-11-15 13:53:00
8:53 AM,50.0,44.1,80,29.96,10.0,SSE,8.1,-,N/A,,Clear,160,2013-11-15 14:53:00
9:53 AM,55.9,44.1,64,29.96,10.0,SSW,9.2,-,N/A,,Clear,210,2013-11-15 15:53:00
10:53 AM,61.0,44.1,54,29.95,10.0,WSW,10.4,-,N/A,,Clear,240,2013-11-15 16:53:00
11:53 AM,64.9,44.1,47,29.92,10.0,Variable,5.8,-,N/A,,Clear,0,2013-11-15 17:53:00
12:53 PM,68.0,44.1,42,29.87,10.0,South,5.8,-,N/A,,Clear,180,2013-11-15 18:53:00
1:53 PM,73.0,42.1,33,29.84,10.0,South,9.2,-,N/A,,Clear,190,2013-11-15 19:53:00
2:53 PM,73.0,42.1,33,29.82,10.0,SSE,6.9,-,N/A,,Clear,150,2013-11-15 20:53:00
3:53 PM,73.9,44.1,34,29.80,10.0,SSE,9.2,-,N/A,,Clear,160,2013-11-15 21:53:00
4:53 PM,72.0,45.0,38,29.80,10.0,SSE,12.7,-,N/A,,Clear,160,2013-11-15 22:53:00
5:53 PM,64.0,46.9,54,29.79,10.0,SE,6.9,-,N/A,,Clear,140,2013-11-15 23:53:00
6:53 PM,62.1,48.9,62,29.80,10.0,SE,9.2,-,N/A,,Clear,130,2013-11-16 00:53:00
7:53 PM,63.0,54.0,72,29.81,10.0,SE,12.7,-,N/A,,Clear,140,2013-11-16 01:53:00
8:53 PM,62.1,55.9,80,29.81,10.0,SSE,11.5,-,N/A,,Clear,150,2013-11-16 02:53:00
9:53 PM,60.1,55.0,83,29.81,10.0,SE,12.7,-,N/A,,Clear,140,2013-11-16 03:53:00
10:53 PM,60.1,55.0,83,29.81,10.0,SSE,11.5,-,N/A,,Clear,150,2013-11-16 04:53:00
11:53 PM,57.9,55.0,90,29.81,10.0,SE,8.1,-,N/A,,Clear,140,2013-11-16 05:53:00